KN4QQN Weather Reports


time (UTC)temp
F
wind
direction
speed
knots
gust
knots
rain 1hr
in
rain 24hr
in
rain mn
in
humidity
%
barometer
mb
20260505125022 64 171 1.7 6.1 0.00 0.00 0.00 65
20260505124042 63 234 2.6 4.3 0.00 0.00 0.00 66
20260505123022 62 234 0.9 3.5 0.00 0.00 0.00 68
20260505122022 61 148 0.9 3.5 0.00 0.00 0.00 69
20260505121022 60 152 0.9 1.7 0.00 0.00 0.00 70
20260505120042 59 132 0.9 2.6 0.00 0.00 0.00 71
20260505115022 59 151 0.9 3.5 0.00 0.00 0.00 72
20260505114022 58 158 0.9 3.5 0.00 0.00 0.00 72
20260505113022 58 167 0.0 1.7 0.00 0.00 0.00 73
20260505112022 57 176 0.0 0.9 0.00 0.00 0.00 74
20260505111042 56 159 0.0 1.7 0.00 0.00 0.00 75
20260505102022 55 145 0.0 0.9 0.00 0.00 0.00 75
20260505101022 56 118 0.0 0.9 0.00 0.00 0.00 74
20260505100042 56 151 0.0 1.7 0.00 0.00 0.00 74
20260505095042 56 155 0.0 0.9 0.00 0.00 0.00 73
20260505094022 56 170 0.0 1.7 0.00 0.00 0.00 73
20260505093022 56 133 0.0 0.9 0.00 0.00 0.00 72
20260505092022 56 141 0.0 0.9 0.00 0.00 0.00 71
20260505091023 57 138 0.0 1.7 0.00 0.00 0.00 71
20260505090022 57 0.0 0.9 0.00 0.00 0.00 70
20260505085022 57 108 0.0 2.6 0.00 0.00 0.00 69
20260505084022 58 0.0 0.0 0.00 0.00 0.00 69
20260505083022 58 111 0.0 0.9 0.00 0.00 0.00 68
20260505082023 58 124 0.9 1.7 0.00 0.00 0.00 68
20260505081022 58 99 0.9 1.7 0.00 0.00 0.00 68
20260505080022 59 170 0.9 3.5 0.00 0.00 0.00 67
20260505075022 59 106 0.9 2.6 0.00 0.00 0.00 68
20260505074022 59 115 0.0 1.7 0.00 0.00 0.00 67
20260505073022 59 148 0.0 0.9 0.00 0.00 0.00 66
20260505072022 60 136 0.9 2.6 0.00 0.00 0.00 66
20260505071022 60 172 0.9 2.6 0.00 0.00 0.00 65
20260505070022 60 152 1.7 2.6 0.00 0.00 0.00 65
20260505065022 61 168 0.9 1.7 0.00 0.00 0.00 65
20260505064042 61 118 1.7 4.3 0.00 0.00 0.00 65
20260505063022 61 140 0.9 1.7 0.00 0.00 0.00 65
20260505062022 61 161 0.9 1.7 0.00 0.00 0.00 64
20260505061022 61 194 0.9 1.7 0.00 0.00 0.00 64
20260505060022 62 115 0.9 2.6 0.00 0.00 0.00 63
20260505055023 62 110 1.7 3.5 0.00 0.00 0.00 63
20260505054022 62 175 1.7 3.5 0.00 0.00 0.00 63
20260505053022 62 140 0.9 1.7 0.00 0.00 0.00 63
20260505052023 62 170 1.7 2.6 0.00 0.00 0.00 63
20260505051022 62 154 0.9 1.7 0.00 0.00 0.00 62
20260505041043 64 187 1.7 3.5 0.00 0.00 0.00 59
20260505040023 65 163 1.7 2.6 0.00 0.00 0.00 58
20260505035022 65 147 1.7 3.5 0.00 0.00 0.00 58
20260505033022 66 132 1.7 3.5 0.00 0.00 0.00 57
20260505032023 66 133 1.7 3.5 0.00 0.00 0.00 56
20260505031023 66 174 1.7 3.5 0.00 0.00 0.00 56
20260505030022 67 189 1.7 7.8 0.00 0.00 0.00 55
20260505025043 67 154 1.7 3.5 0.00 0.00 0.00 54
20260505024022 67 122 1.7 3.5 0.00 0.00 0.00 52
20260505023023 68 201 1.7 3.5 0.00 0.00 0.00 49
20260505022023 68 119 1.7 2.6 0.00 0.00 0.00 44
20260505021023 69 164 0.9 2.6 0.00 0.00 0.00 41
20260505020023 69 187 1.7 3.5 0.00 0.00 0.00 41
20260505015023 69 166 1.7 4.3 0.00 0.00 0.00 40
20260505014023 69 96 1.7 2.6 0.00 0.00 0.00 40
20260505013023 69 165 1.7 3.5 0.00 0.00 0.00 40
20260505012023 70 176 0.9 1.7 0.00 0.00 0.00 40
20260505011023 70 175 0.9 1.7 0.00 0.00 0.00 39
20260505010023 70 190 0.9 2.6 0.00 0.00 0.00 39
20260505005023 71 142 0.0 1.7 0.00 0.00 0.00 37
20260505004023 72 163 0.9 1.7 0.00 0.00 0.00 36
20260505003023 72 128 0.9 1.7 0.00 0.00 0.00 36
20260505002023 72 100 0.9 2.6 0.00 0.00 0.00 35
20260505001023 73 171 0.9 3.5 0.00 0.00 0.00 33
20260505000043 74 146 0.9 2.6 0.00 0.00 0.00 32
20260504235123 75 152 0.9 1.7 0.00 0.00 0.00 31
20260504234023 76 170 0.0 1.7 0.00 0.00 0.00 30
20260504233023 77 168 0.9 1.7 0.00 0.00 0.00 29
20260504232023 78 179 1.7 5.2 0.00 0.00 0.00 28
20260504231023 78 216 0.0 1.7 0.00 0.00 0.00 29
20260504230023 79 148 1.7 5.2 0.00 0.00 0.00 28
20260504225023 80 118 1.7 5.2 0.00 0.00 0.00 27
20260504224023 80 185 1.7 3.5 0.00 0.00 0.00 27
20260504223023 81 211 1.7 2.6 0.00 0.00 0.00 28
20260504222043 80 216 1.7 3.5 0.00 0.00 0.00 28
20260504221043 81 251 2.6 5.2 0.00 0.00 0.00 27
20260504220043 81 314 1.7 4.3 0.00 0.00 0.00 28
20260504215103 82 140 2.6 4.3 0.00 0.00 0.00 28
20260504214023 82 202 1.7 3.5 0.00 0.00 0.00 28
20260504213023 82 231 1.7 3.5 0.00 0.00 0.00 28
20260504212023 82 184 1.7 5.2 0.00 0.00 0.00 28
20260504211023 81 146 1.7 7.8 0.00 0.00 0.00 28
20260504210023 82 176 1.7 3.5 0.00 0.00 0.00 29
20260504205023 81 134 1.7 1.7 0.00 0.00 0.00 28
20260504204023 82 105 1.7 4.3 0.00 0.00 0.00 28
20260504203023 82 154 1.7 3.5 0.00 0.00 0.00 28
20260504202023 81 189 2.6 5.2 0.00 0.00 0.00 27
20260504201023 81 340 1.7 4.3 0.00 0.00 0.00 28
20260504200023 82 215 1.7 3.5 0.00 0.00 0.00 29
20260504195023 81 101 1.7 3.5 0.00 0.00 0.00 29
20260504194023 81 159 2.6 6.1 0.00 0.00 0.00 29
20260504193024 80 182 2.6 6.1 0.00 0.00 0.00 29
20260504192023 81 48 2.6 5.2 0.00 0.00 0.00 28
20260504191023 81 215 2.6 6.1 0.00 0.00 0.00 29
20260504190024 79 246 2.6 5.2 0.00 0.00 0.00 29
20260504185023 80 159 1.7 2.6 0.00 0.00 0.00 30
20260504184023 79 199 1.7 3.5 0.00 0.00 0.00 32
20260504183023 79 172 1.7 3.5 0.00 0.00 0.00 30
20260504182023 80 252 2.6 3.5 0.00 0.00 0.00 30
20260504181023 78 210 2.6 5.2 0.00 0.00 0.00 31
20260504180043 79 148 1.7 4.3 0.00 0.00 0.00 32
20260504175024 76 304 1.7 5.2 0.00 0.00 0.00 33
20260504174023 77 234 1.7 4.3 0.00 0.00 0.00 33
20260504173124 78 146 1.7 3.5 0.00 0.00 0.00 34
20260504172023 77 258 1.7 4.3 0.00 0.00 0.00 35
20260504171023 77 210 1.7 3.5 0.00 0.00 0.00 35
20260504151023 70 178 0.9 3.5 0.00 0.00 0.00 48
20260504141043 64 168 0.9 1.7 0.00 0.00 0.00 56